Orbital Elements at Epoch 2459200.5 (2020-Dec-17.0) TDB
Reference: JPL 21 (heliocentric ecliptic J2000)
Element | Value | Uncertainty (1-sigma) | Units |
e | .2080321535935221 | 4.4349e-08 | |
a | 2.767971971449127 | 1.9572e-08 | au |
q | 2.192144801142058 | 1.2239e-07 | au |
i | 5.217904982912443 | 7.2571e-06 | deg |
node | 209.9030786208929 | 4.4526e-05 | deg |
peri | 235.9222135331216 | 4.7974e-05 | deg |
M | 161.5672459582668 | 1.9098e-05 | deg |
tp | 2458445.595906347070 (2018-Nov-23.09590635) | 8.4572e-05 | TDB |
period | 1682.057969752436 4.61 | 1.784e-05 4.884e-08 | d yr |
n | .2140235393034549 | 2.27e-09 | deg/d |
Q | 3.343799141756196 | 2.3643e-08 | au |
|
| | Orbit Determination Parameters
Additional Information
|